Regional Weather Roundup
Issued by NWS

Home | Current Version | Previous Version | Graphics & Text | Print | Product List | Glossary On
Versions: 1 2 3 4 5 6 7 8 9 10 11 12 13 14 15 16 17 18 19 20 21 22 23 24 25 26 27 28 29 30 31 32 33 34 35 36 37 38 39 40 41 42 43 44 45 46 47 48 49 50
000
ASUS43 KMPX 020201
RWRMN
WEATHER ROUNDUP FOR MINNESOTA
NATIONAL WEATHER SERVICE TWIN CITIES/CHANHASSEN MN
900 PM CDT WED JUL 01 2015


NOTE: "FAIR" INDICATES FEW OR NO CLOUDS BELOW 12,000 FEET WITH NO
SIGNIFICANT WEATHER AND/OR OBSTRUCTIONS TO VISIBILITY. N/A MEANS
CURRENT SKY AND/OR WEATHER CONDITIONS ARE NOT AVAILABLE.

MNZ060>063-068>070-020300-
   Twin Cities Metro

CITY           SKY/WX    TMP DP  RH WIND       PRES   REMARKS
TWIN CITIES    PTCLDY    69  52  54 SW6       30.00R
ST PAUL        CLEAR     68  56  65 S3        30.00S
CRYSTAL        CLEAR     69  49  48 SW7       29.99S
BLAINE         PTCLDY    70  57  64 CALM      30.00R
LAKEVILLE      CLEAR     59  55  88 CALM      30.01S
EDEN PRAIRIE   CLEAR     64  52  64 SW5       30.00R
SOUTH ST PAUL  CLEAR     67  56  67 SW3       30.00R
LAKE ELMO      FAIR      64  57  77 CALM      30.01S
$$
MNZ001>005-007-008-013>017-022>024-027-028-020300-
   Northwest Minnesota

CITY           SKY/WX    TMP DP  RH WIND       PRES   REMARKS
BEMIDJI        CLOUDY    70  62  77 W3        29.97S
HALLOCK        PTCLDY    73  61  64 CALM      29.92S
ROSEAU         MOCLDY    70  63  78 CALM      29.94S
WARROAD        MOCLDY    72  63  73 CALM      29.95S
THIEF RVR FALL PTCLDY    70  61  73 SW3       29.96R
CROOKSTON      CLEAR     72  63  73 SW5       29.95S
FOSSTON        CLEAR     66  59  77 CALM      29.98R
DETROIT LAKES  CLEAR     68  54  60 CALM      30.00S
MOORHEAD       CLEAR     70  55  60 S5        29.97R
PARK RAPIDS    CLOUDY    70  57  63 SW6       29.98S
MAHNOMEN       FAIR      69  58  69 SW6       29.97S
$$
MNZ006-009>011-018-025>026-020300-
   North Central Minnesota

CITY           SKY/WX    TMP DP  RH WIND       PRES   REMARKS
BAUDETTE       MOCLDY    70  61  73 CALM      29.95R
FLAG ISLAND    CLOUDY    72  63  73 SW6       29.93S
INTL FALLS     PTCLDY    64  58  80 SE3       29.96R
WASKISH        MOCLDY    66  61  82 CALM      29.96R
BIG FORK       MOCLDY    66  61  82 CALM      29.98R
LONGVILLE      CLOUDY    66  61  82 CALM      29.98S
GRAND RAPIDS   MOCLDY    64  57  77 S3        29.99S
CRANE LAKE     PTCLDY    61  59  94 CALM      29.98S
COOK           PTCLDY    64  59  82 CALM      29.98F
WALKER         CLOUDY    67  61  83 SW5       29.96F
$$
MNZ012-019>021-037-020300-
   Northeast Minnesota

CITY           SKY/WX    TMP DP  RH WIND       PRES   REMARKS
DULUTH         PTCLDY    62  51  67 SE6       30.01R
ELY            CLOUDY    66  54  63 S5        29.99S
HIBBING        MOCLDY    66  58  75 SE3       29.98S
EVELETH        MOCLDY    63  59  88 CALM      30.00S
DULUTH HARBOR  PTCLDY    63  55  77 NE7       30.01S
TWO HARBORS    CLEAR     63  54  72 NE2       29.99S
SILVER BAY     CLEAR     59  48  67 CALM      30.00S
GRAND MARAIS     N/A     55  51  86 SW3       30.00F
G MARAIS ARPRT PTCLDY    54  45  71 S3        30.03F
$$
MNZ029>031-032-039>041-046>048-054>057-064-020300-
   West Central Minnesota

CITY           SKY/WX    TMP DP  RH WIND       PRES   REMARKS
FERGUS FALLS   CLEAR     68  57  68 SE3       29.98R
WHEATON        CLEAR     63  55  77 SE6       29.99R
MORRIS         CLEAR     66  57  72 SE7       29.97S
ALEXANDRIA     CLEAR     66  55  67 S6        30.01S
ELBOW LAKE     FAIR      65  57  73 SE5       29.98S
WADENA           N/A     66  55  68 CALM      29.99S
GLENWOOD       CLEAR     64  57  77 SE3       30.01S
APPLETON       CLEAR     64  55  72 SE6       29.97F
BENSON         CLEAR     64  54  68 S3        29.99S
ORTONVILLE     CLEAR     64  55  72 SE7       29.97S
MADISON        CLEAR     63  54  72 E6        29.98S
WILLMAR        FAIR      64  57  77 SE5       30.01S
$$
MNZ033>034-036-042>043-049>051-058-059-020300-
   Central Minnesota

CITY           SKY/WX    TMP DP  RH WIND       PRES   REMARKS
ST CLOUD       CLEAR     66  55  67 SW3       30.00R
SAUK CENTRE    FAIR      64  58  83 SE3       30.01R
PAYNESVILLE    CLEAR     62  53  72 E5        30.02R
AITKIN         PTCLDY    66  57  72 S3        29.98S
PINE RIVER       N/A     70  57  64 S5        30.01S
BRAINERD       PTCLDY    67  56  67 S5        29.99S
STAPLES        CLEAR     66  55  68 S3        29.99S
LONG PRAIRIE   FAIR      63  57  82 SE3       30.01S
LITTLE FALLS   CLEAR     66  54  63 CALM      30.00S
LITCHFIELD     CLEAR     66  54  63 SE3       30.02S
BUFFALO        CLEAR     65  53  63 S3        30.01S
MAPLE LAKE     CLEAR     65  54  67 CALM      30.02R
$$
MNZ037-044-045-052-053-020300-
   East Central Minnesota

CITY           SKY/WX    TMP DP  RH WIND       PRES   REMARKS
PRINCETON      CLEAR     70  55  60 CALM      30.00S
MORA           PTCLDY    64  57  77 CALM      30.02R
CAMBRIDGE      CLEAR     68  55  64 CALM      29.99R
RUSH CITY      CLEAR     64  58  82 CALM      30.00S
MOOSE LAKE     PTCLDY    61  55  82 CALM      29.99R
HINCKLEY       FAIR      64  61  88 CALM      30.00R
CLOQUET        PTCLDY    64  55  72 E3        30.01R
MCGREGOR       PTCLDY    68  55  64 CALM      30.00S
$$
MNZ071>073-080-081-089-090-097-098-020300-
   Southwest Minnesota

CITY           SKY/WX    TMP DP  RH WIND       PRES   REMARKS
MONTEVIDEO     CLEAR     63  55  77 SE5       29.99S
GRANITE FALLS  CLEAR     64  53  67 CALM      30.00F HAZE
CANBY          PTCLDY    64  54  69 SE3       29.99S
MARSHALL       MOCLDY    66  52  59 SE9       29.97S
REDWOOD FALLS  PTCLDY    64  56  75 SE5       29.99S
OLIVIA         CLEAR     61  52  72 CALM      30.00S
PIPESTONE      MOCLDY    66  55  68 SE7       29.98R
WINDOM         MOCLDY    64  55  72 E5        30.00S
WORTHINGTON    CLOUDY    64  52  63 E9        29.99S
JACKSON        MOCLDY    64  55  72 E7        30.00F
TRACY          MOCLDY    66  56  70 E6        29.99S
SLAYTON        CLOUDY    65  54  65 CALM      30.00S
$$
MNZ065>067-074>077-082>085-091>093-020300-
   South Central Minnesota

CITY           SKY/WX    TMP DP  RH WIND       PRES   REMARKS
MANKATO        CLEAR     63  50  63 E5        30.01S
NEW ULM        CLEAR     64  50  59 CALM      30.00F
ST JAMES       PTCLDY    63  57  82 NE5       30.01F
FAIRMONT       PTCLDY    63  54  72 NE5       30.00R
GLENCOE        CLEAR     63  56  77 CALM      30.01R
FARIBAULT      CLEAR     57  54  88 CALM      30.02S
OWATONNA       CLEAR     63  52  67 CALM      30.01F
WASECA         CLEAR     59  54  82 CALM      30.03R
ALBERT LEA     CLEAR     59  52  77 NE5       30.01S
$$
MNZ078>079-086>088-094>096-020300-
   Southeast Minnesota

CITY           SKY/WX    TMP DP  RH WIND       PRES   REMARKS
ROCHESTER      PTCLDY    61  52  72 CALM      30.03R
RED WING       CLEAR     64  57  77 CALM      30.00R
STANTON        CLEAR     63  57  82 CALM      30.00S
DODGE CENTER   CLEAR     59  54  82 NE5       30.02S
WINONA         PTCLDY    61  54  77 CALM      30.00S
AUSTIN         CLEAR     57  52  82 CALM      30.01S
PRESTON        PTCLDY    57  54  91 CALM      30.02R
$$
ABBREVIATIONS USED IN REMARKS
   TC - TEMPERATURES IN CELSIUS
  WCI - WIND CHILL INDEX
   HX - HEAT INDEX
  VSB - VISIBILITY
$$


USA.gov is the U.S. government's official web portal to all federal, state and local government web resources and services.